Home > Time Zones > World Clock > Weather > Russia > Ufa > Past weeks

Flag for Russia Weather past 2 weeks in Ufa, Russia

Now
39 °F

Overcast.


Feels Like: 31 °F
Forecast: 31 / 43 °F
Wind: 15 mph from North

Location: Ufa

Current Time: Sep 17, 2014 at 8:03:20 AM

Latest Report: Sep 17, 2014 at 7:30 AM


Visibility: N/A

Pressure: 29.86 "Hg

Humidity: 87%

Dew point: 36 °F

Location of UfaLocation

Historic Weather in Ufa — Graph

°F

Ufa temperature yesterday

Maximum temperature yesterday: 54 °F (at 10:30 AM)
Minimum temperature yesterday: 41 °F (at 9:30 PM)
Average temperature yesterday: 49 °F

Past Weeks' High & Low Weather Summary

 TemperatureHumidityPressure
High72 °F (Sep 12, 4:30 PM)100% (Sep 3, 6:00 AM)30.42 "Hg (Sep 3, 6:00 AM)
Low32 °F (Sep 9, 7:00 AM)33% (Sep 13, 5:00 PM)29.77 "Hg (Sep 16, 4:00 PM)
Average53 °F75%30.11 "Hg
* Reported Sep 2 7:00 AM — Sep 17 7:00 AM, Ufa, Weather by CustomWeather, © 2014

Note: Actual official high and low records may vary slightly from our data, if they occured in-between our weather recording intervals... More about our weather records

Advertising

Ufa weather history for previous 24 hours

 ConditionsComfort  
Time TempWeatherWind HumidityBarometerVisibility
7:00 AM
Sep 17
39 °FOvercast.17 mph87%29.86 "HgN/A
6:30 AM39 °FOvercast.17 mph87%29.83 "HgN/A
6:00 AM39 °FLight rain. Overcast.20 mph87%29.83 "HgN/A
5:30 AM39 °FSprinkles. Overcast.20 mph87%29.83 "HgN/A
5:00 AM39 °FSprinkles. Overcast.20 mph87%29.80 "HgN/A
4:30 AM37 °FSprinkles. Overcast.20 mph93%29.80 "HgN/A
4:00 AM39 °FSprinkles. Overcast.20 mph87%29.80 "HgN/A
3:30 AM39 °FOvercast.20 mph87%29.80 "HgN/A
3:00 AM39 °FSprinkles. Overcast.20 mph81%29.80 "HgN/A
2:30 AM39 °FSprinkles. Overcast.20 mph87%29.80 "HgN/A
2:00 AM39 °FSprinkles. Overcast.17 mph87%29.80 "HgN/A
1:30 AM39 °FSprinkles. Overcast.17 mph87%29.80 "HgN/A
1:00 AM39 °FOvercast.17 mph87%29.80 "HgN/A
12:30 AM41 °FOvercast.17 mph81%29.80 "HgN/A
12:00 AM41 °FOvercast.17 mph81%29.80 "HgN/A
11:30 PM
Sep 16
41 °FOvercast.15 mph81%29.80 "HgN/A
11:00 PM41 °FSprinkles. Overcast.17 mph87%29.80 "HgN/A
10:30 PM41 °FOvercast.13 mph87%29.80 "HgN/A
10:00 PM41 °FOvercast.8 mph93%29.80 "HgN/A
9:30 PM41 °FOvercast.10 mph93%29.80 "HgN/A
9:00 PM43 °FSprinkles. Overcast.15 mph81%29.80 "HgN/A
8:30 PM43 °FSprinkles. Overcast.20 mph81%29.80 "HgN/A
8:00 PM46 °FLight rain. More clouds than sun.22 mph71%29.77 "HgN/A
7:30 PM50 °FMore clouds than sun.20 mph62%29.77 "HgN/A
7:00 PM50 °FMore clouds than sun.15 mph58%29.77 "HgN/A
6:30 PM52 °FBroken clouds.10 mph62%29.77 "HgN/A
6:00 PM52 °FBroken clouds.10 mph67%29.77 "HgN/A
5:30 PM50 °FBroken clouds.10 mph67%29.77 "HgN/A
5:00 PM52 °FLight rain. Broken clouds.15 mph72%29.77 "HgN/A
4:30 PM54 °FPartly sunny.13 mph63%29.77 "HgN/A
4:00 PM54 °FPartly sunny.13 mph72%29.77 "HgN/A
3:30 PM50 °FMore clouds than sun.13 mph82%29.80 "HgN/A
3:00 PM50 °FLight rain. More clouds than sun.10 mph82%29.80 "HgN/A
2:30 PM48 °FLight rain. More clouds than sun.13 mph87%29.80 "HgN/A
2:00 PM48 °FLight rain. More clouds than sun.8 mph87%29.80 "HgN/A
1:30 PM48 °FLight rain. More clouds than sun.13 mph82%29.83 "Hg2 mi
1:00 PM50 °FCloudy.15 mph71%29.80 "HgN/A
12:30 PM54 °FCloudy.17 mph63%29.80 "HgN/A
12:00 PM54 °FMostly cloudy.10 mph58%29.80 "HgN/A
11:30 AM54 °FMostly cloudy.13 mph58%29.83 "HgN/A
11:00 AM54 °FBroken clouds.10 mph63%29.83 "HgN/A
10:30 AM54 °FBroken clouds.10 mph67%29.83 "HgN/A
10:00 AM50 °FPartly sunny.8 mph76%29.83 "HgN/A
9:30 AM50 °FPartly sunny.6 mph76%29.83 "HgN/A
8:30 AM50 °FMostly cloudy.6 mph76%29.83 "HgN/A
8:00 AM50 °FMostly cloudy.6 mph76%29.86 "HgN/A
Weather by CustomWeather, © 2014

See weather overviewHow to use our weather pages